Weather History for Seminole, TX

Change the Weather History Date:

Sunday, August 4, 2013

  Actual Average (KHOB) Record (KHOB)
Temperature  
Mean Temperature 82 °F -  
Max Temperature 97 °F 92 °F 105 °F (2003)
Min Temperature 67 °F 67 °F 60 °F (2007)
Cooling Degree Days 17    
Growing Degree Days 32 (Base 50)    
Moisture  
Dew Point 54 °F    
Average Humidity 38    
Maximum Humidity 64    
Minimum Humidity 18    
Precipitation  
Precipitation 0.00 in - - ()
Sea Level Pressure  
Sea Level Pressure 30.09 in    
Wind  
Wind Speed 8 mph (SSE)    
Max Wind Speed 15 mph    
Max Gust Speed 23 mph    
Visibility 10 miles    
Events      
Averages and records for this station are not official NWS values.
T = Trace of Precipitation, MM = Missing Value Source: NWS Daily Summary

Daily Weather History Graph

Daily Weather History Graph

Search for Another Location

Airport:

Trip Planner

Search our weather history database for the weather conditions in past years. The results will help you decide how hot, cold, wet, or windy it might be!

Date:

Astronomy

Aug. 04, 2013 Rise Set
Actual Time 7:06 AM CDT 8:45 PM CDT
Civil Twilight 6:40 AM CDT 9:12 PM CDT
Nautical Twilight 6:08 AM CDT 9:44 PM CDT
Astronomical Twilight 5:34 AM CDT 10:18 PM CDT
Moon 5:10 AM CDT (8/4) 7:10 PM CDT (8/4)
Length of Visible Light 14h 32m
Length of Day
13h 39m
Waning Crescent, 4% of the Moon is Illuminated
Aug 4
Waning Crescent
Aug 6
New
Aug 14
First Quarter
Aug 20
Full
Aug 28
Last Quarter

Hourly Weather History & Observations

Time (CDT) Temp. Heat Index Dew Point Humidity Pressure Visibility Wind Dir Wind Speed Gust Speed Precip Events Conditions
12:15 AM 83.8 °F - 52.3 °F 34% 30.09 in 10.0 mi SSE 11.5 mph - N/A   Clear
12:35 AM 82.9 °F - 52.2 °F 34% 30.09 in 10.0 mi SSE 8.1 mph - N/A   Clear
12:55 AM 81.3 °F - 52.7 °F 37% 30.10 in 10.0 mi SSE 6.9 mph - N/A   Clear
1:15 AM 79.7 °F - 53.2 °F 40% 30.10 in 10.0 mi South 5.8 mph - N/A   Clear
1:35 AM 78.1 °F - 53.8 °F 43% 30.10 in 10.0 mi South 4.6 mph - N/A   Clear
1:55 AM 76.5 °F - 54.1 °F 46% 30.10 in 10.0 mi South 4.6 mph - N/A   Clear
2:15 AM 75.6 °F - 54.3 °F 48% 30.10 in 10.0 mi South 5.8 mph - N/A   Clear
2:35 AM 74.8 °F - 54.0 °F 48% 30.10 in 10.0 mi South 5.8 mph - N/A   Clear
2:55 AM 75.7 °F - 54.1 °F 47% 30.10 in 10.0 mi South 5.8 mph - N/A   Clear
3:15 AM 74.5 °F - 54.5 °F 50% 30.10 in 10.0 mi SSW 5.8 mph - N/A   Clear
3:35 AM 73.9 °F - 54.5 °F 51% 30.10 in 10.0 mi SSW 4.6 mph - N/A   Clear
3:55 AM 74.1 °F - 54.9 °F 51% 30.10 in 10.0 mi SW 4.6 mph - N/A   Clear
4:15 AM 73.2 °F - 54.7 °F 52% 30.10 in 10.0 mi SW 3.5 mph - N/A   Clear
4:35 AM 72.1 °F - 54.9 °F 54% 30.10 in 10.0 mi SSW 4.6 mph - N/A   Clear
4:55 AM 72.5 °F - 55.2 °F 54% 30.10 in 10.0 mi SW 4.6 mph - N/A   Clear
5:15 AM 71.1 °F - 55.2 °F 57% 30.10 in 10.0 mi SSW 3.5 mph - N/A   Clear
5:35 AM 70.5 °F - 55.2 °F 58% 30.10 in 10.0 mi SSW 4.6 mph - N/A   Clear
5:55 AM 71.1 °F - 55.4 °F 58% 30.10 in 10.0 mi SSW 3.5 mph - N/A   Clear
6:15 AM 70.9 °F - 55.0 °F 57% 30.10 in 10.0 mi Calm Calm - N/A   Clear
6:35 AM 70.0 °F - 55.4 °F 60% 30.11 in 10.0 mi SE 3.5 mph - N/A   Clear
6:55 AM 68.0 °F - 55.2 °F 64% 30.11 in 10.0 mi SE 4.6 mph - N/A   Clear
7:15 AM 67.5 °F - 54.9 °F 64% 30.12 in 10.0 mi SSE 4.6 mph - N/A   Clear
7:35 AM 68.0 °F - 54.9 °F 63% 30.12 in 10.0 mi SE 3.5 mph - N/A   Clear
7:55 AM 69.4 °F - 55.4 °F 61% 30.13 in 10.0 mi Calm Calm - N/A   Clear
8:15 AM 71.2 °F - 56.3 °F 59% 30.14 in 10.0 mi SE 4.6 mph - N/A   Clear
8:35 AM 74.3 °F - 56.8 °F 54% 30.15 in 10.0 mi SE 3.5 mph - N/A   Clear
8:55 AM 76.3 °F - 58.5 °F 54% 30.15 in 10.0 mi SE 6.9 mph - N/A   Clear
9:15 AM 77.5 °F - 61.2 °F 57% 30.16 in 10.0 mi SSE 11.5 mph 16.1 mph N/A   Clear
9:35 AM 79.2 °F - 62.2 °F 56% 30.16 in 10.0 mi South 11.5 mph 18.4 mph N/A   Clear
9:55 AM 80.8 °F 81.8 °F 61.7 °F 52% 30.15 in 10.0 mi South 11.5 mph - N/A   Clear
10:15 AM 82.2 °F 83.0 °F 61.7 °F 50% 30.15 in 10.0 mi SSE 11.5 mph 16.1 mph N/A   Clear
10:35 AM 83.8 °F 84.1 °F 61.2 °F 46% 30.15 in 7.0 mi SSE 12.7 mph - N/A   Clear
10:55 AM 85.3 °F 85.4 °F 61.2 °F 44% 30.14 in 7.0 mi South 12.7 mph 17.3 mph N/A   Clear
11:15 AM 86.0 °F 85.0 °F 57.6 °F 38% 30.15 in 10.0 mi South 11.5 mph 18.4 mph N/A   Clear
11:35 AM 88.0 °F 86.3 °F 55.6 °F 33% 30.14 in 7.0 mi South 11.5 mph 17.3 mph N/A   Clear
11:55 AM 89.2 °F 87.5 °F 56.1 °F 32% 30.14 in 5.0 mi South 13.8 mph 19.6 mph N/A   Haze
12:15 PM 89.6 °F 87.5 °F 54.3 °F 30% 30.14 in 10.0 mi South 10.4 mph - N/A   Clear
12:35 PM 90.0 °F 87.7 °F 53.8 °F 29% 30.13 in 10.0 mi SSE 10.4 mph 20.7 mph N/A   Clear
12:55 PM 90.9 °F - 52.5 °F 27% 30.13 in 10.0 mi SE 11.5 mph 17.3 mph N/A   Clear
1:15 PM 91.4 °F 89.1 °F 54.3 °F 28% 30.11 in 10.0 mi South 13.8 mph 18.4 mph N/A   Clear
1:35 PM 92.1 °F - 52.0 °F 25% 30.11 in 7.0 mi South 15.0 mph - N/A   Clear
1:55 PM 91.8 °F 89.3 °F 53.4 °F 27% 30.10 in 5.0 mi SE 13.8 mph 20.7 mph N/A   Haze
2:15 PM 93.4 °F 91.0 °F 53.6 °F 26% 30.10 in 7.0 mi South 15.0 mph 21.9 mph N/A   Clear
2:35 PM 94.6 °F - 52.7 °F 24% 30.09 in 10.0 mi South 10.4 mph - N/A   Clear
2:55 PM 95.0 °F 92.5 °F 53.1 °F 24% 30.08 in 10.0 mi South 13.8 mph 18.4 mph N/A   Clear
3:15 PM 94.8 °F - 51.8 °F 23% 30.08 in 10.0 mi South 12.7 mph 18.4 mph N/A   Clear
3:35 PM 95.5 °F - 51.3 °F 22% 30.07 in 10.0 mi South 11.5 mph 20.7 mph N/A   Clear
3:55 PM 95.7 °F - 51.8 °F 23% 30.06 in 10.0 mi South 12.7 mph 21.9 mph N/A   Clear
4:15 PM 95.9 °F - 49.6 °F 21% 30.05 in 10.0 mi SE 15.0 mph 23.0 mph N/A   Clear
4:35 PM 97.0 °F - 49.8 °F 20% 30.04 in 10.0 mi SE 12.7 mph 19.6 mph N/A   Clear
4:55 PM 96.8 °F - 50.9 °F 21% 30.04 in 10.0 mi SSE 13.8 mph 18.4 mph N/A   Clear
5:15 PM 96.6 °F - 49.5 °F 20% 30.03 in 10.0 mi SSW 9.2 mph 17.3 mph N/A   Clear
5:35 PM 96.6 °F - 50.5 °F 21% 30.03 in 10.0 mi SE 10.4 mph 19.6 mph N/A   Clear
5:55 PM 96.3 °F - 49.1 °F 20% 30.03 in 10.0 mi South 10.4 mph - N/A   Clear
6:15 PM 96.4 °F - 46.8 °F 18% 30.03 in 10.0 mi South 9.2 mph - N/A   Clear
6:35 PM 95.9 °F - 47.5 °F 19% 30.02 in 10.0 mi South 10.4 mph - N/A   Clear
6:55 PM 95.5 °F - 48.4 °F 20% 30.02 in 10.0 mi SSE 9.2 mph - N/A   Clear
7:15 PM 95.0 °F - 47.8 °F 20% 30.02 in 10.0 mi South 9.2 mph - N/A   Clear
7:35 PM 94.5 °F - 49.3 °F 21% 30.02 in 10.0 mi SSE 13.8 mph 19.6 mph N/A   Clear
7:55 PM 93.2 °F - 49.5 °F 22% 30.02 in 10.0 mi SE 8.1 mph - N/A   Clear
8:15 PM 92.5 °F - 50.2 °F 24% 30.03 in 10.0 mi SSE 10.4 mph - N/A   Clear
8:35 PM 90.7 °F - 49.6 °F 24% 30.03 in 10.0 mi SE 9.2 mph - N/A   Clear
8:55 PM 89.2 °F - 49.8 °F 26% 30.03 in 10.0 mi SSE 6.9 mph - N/A   Clear
9:15 PM 86.7 °F - 50.2 °F 28% 30.03 in 10.0 mi SE 5.8 mph - N/A   Clear
9:35 PM 85.1 °F - 50.4 °F 30% 30.04 in 10.0 mi SE 6.9 mph - N/A   Clear
9:55 PM 84.2 °F - 50.9 °F 32% 30.05 in 10.0 mi ESE 6.9 mph - N/A   Clear
10:15 PM 83.5 °F - 51.8 °F 33% 30.06 in 10.0 mi ESE 6.9 mph - N/A   Clear
10:35 PM 84.2 °F 82.8 °F 53.8 °F 35% 30.07 in 10.0 mi SE 9.2 mph - N/A   Clear
10:55 PM 84.2 °F 82.8 °F 54.1 °F 35% 30.08 in 10.0 mi SE 9.2 mph - N/A   Clear
11:15 PM 83.7 °F 82.4 °F 54.1 °F 36% 30.09 in 10.0 mi SE 9.2 mph - N/A   Clear
11:35 PM 82.8 °F 81.7 °F 54.1 °F 37% 30.09 in 10.0 mi SE 10.4 mph - N/A   Clear
11:55 PM 81.9 °F 81.1 °F 54.1 °F 38% 30.09 in 10.0 mi SE 8.1 mph - N/A   Clear